Regional Weather Roundup
Issued by NWS

Home | Current Version | Previous Version | Graphics & Text | Print | Product List | Glossary On
Versions: 1 2 3 4 5 6 7 8 9 10 11 12 13 14 15 16 17 18 19 20 21 22 23 24 25 26 27 28 29 30 31 32 33 34 35 36 37 38 39 40 41 42 43 44 45 46 47 48 49 50
000
ASUS43 KLOT 240608
RWRIL

ILLINOIS REGIONAL WEATHER ROUNDUP
NATIONAL WEATHER SERVICE CHICAGO/ROMEOVILLE IL
100 AM CDT THU AUG 24 2017

NOTE: "FAIR" INDICATES FEW OR NO CLOUDS BELOW 12,000 FEET WITH NO
SIGNIFICANT WEATHER AND/OR OBSTRUCTIONS TO VISIBILITY.

* THESE STATIONS ARE NOT UNDER NWS QUALITY CONTROL. THEY ALSO MAY NOT
  REPORT WEATHER SUCH AS PRECIPITATION OR FOG.

ILZ001-002-007-009-015-016-024-240700-
NORTHWEST ILLINOIS

CITY           SKY/WX    TMP DP  RH WIND       PRES   REMARKS
MOLINE         NOT AVBL
SAVANNA*       PTCLDY    55  55  99 CALM      30.06S
$$

ILZ003-004-008-010-011-017-018-240700-
NORTH CENTRAL ILLINOIS

CITY           SKY/WX    TMP DP  RH WIND       PRES   REMARKS
ROCKFORD       CLEAR     57  54  89 CALM      30.06S
6HR MIN TEMP:  56; 6HR MAX TEMP:  72;

FREEPORT*      PTCLDY    53  52  95 CALM      30.07S
ROCHELLE*      PTCLDY    51  50  97 CALM      30.06S
DE KALB*       PTCLDY    58  54  86 CALM      30.06S
PERU*          CLEAR     58  54  85 CALM      30.06S
$$

ILZ005-006-012>014-019>023-240700-
NORTHEAST ILLINOIS

CITY           SKY/WX    TMP DP  RH WIND       PRES   REMARKS
CHICAGO-OHARE  PTCLDY    64  55  72 CALM      30.03S
6HR MIN TEMP:  63; 6HR MAX TEMP:  72;

CHICAGO-MIDWAY MOCLDY    66  57  72 SW5       30.03S
6HR MIN TEMP:  65; 6HR MAX TEMP:  71;

AURORA         CLEAR     54  53  97 CALM      30.05S
6HR MIN TEMP:  54; 6HR MAX TEMP:  70;

LANSING*       CLEAR     55  55 100 CALM      30.04S
JOLIET*        CLEAR     57  56  98 CALM      30.05S
WAUKEGAN       PTCLDY    58  57  97 CALM      30.03S
6HR MIN TEMP:  57; 6HR MAX TEMP:  67;

DUPAGE AIRPORT CLEAR     58  57  97 CALM      30.04S
6HR MIN TEMP:  57; 6HR MAX TEMP:  72;

KANKAKEE*      CLEAR     57  55  94 CALM      30.05S
WHEELING       PTCLDY    59  57  93 CALM      30.05S
6HR MIN TEMP:  58; 6HR MAX TEMP:  70;

MORRIS*        CLEAR     57  55  92 CALM      30.04S
ROMEOVILLE*    PTCLDY    59  56  91 CALM      30.04F
NORTHERLY ISL    N/A     66  55  67 S3          N/A
$$

LMZ740>746-240700-
SOUTHERN LAKE MICHIGAN

STATION/POSITION SKY/WX   TEMP    WIND        PRES    VSBY  WAVE
                          AIR SEA DIR/SP/G                  HT/PER
                          (F)     (DEG/KT/KT) (MB)    (MI)  (FT/S)
SOUTHERN BUOY              66 71  160/  2/  2 1017.0          2/ 5
WILMETTE HARBOR            68 73  230/  6/  8   N/A           1/ 5
HARRISON CRIB              69     210/  8/ 10   N/A
CALUMET HARBOR             65     220/  2/  3 1016.5S
BURNS HARBOR               63     190/  3/  4 1017.6S
MICHIGAN CITY              61     130/  5/  5   N/A
MICHIGAN CITY 6N           66 73  150/  4/  6   N/A           2/ 6
ST. JOSEPH                 66 75  150/  4/  6 1017.1          2/ 5
$$

ILZ025>027-034>036-040-047-049-050-058-095>099-240700-
WEST-CENTRAL ILLINOIS

CITY           SKY/WX    TMP DP  RH WIND       PRES   REMARKS
QUINCY         CLEAR     62  54  74 CALM      30.07R
GALESBURG*     CLEAR     54  54 100 CALM      30.08R
MACOMB*        CLEAR     55  55  99 W3        30.09R
JACKSONVILLE*  CLEAR     57  55  93 CALM      30.06F
PITTSFIELD*    CLEAR     58  57  96 CALM      30.08S
$$

ILZ028>032-037-038-041>044-048-051>054-059>061-240700-
CENTRAL ILLINOIS

CITY           SKY/WX    TMP DP  RH WIND       PRES   REMARKS
PONTIAC        CLEAR     55  55  98 CALM      30.06S
DECATUR        CLEAR     60  55  83 CALM      30.06R
PEORIA         CLEAR     59  56  89 CALM      30.06R
6HR MIN TEMP:  59; 6HR MAX TEMP:  74;

LACON*         CLEAR     56  56 100 CALM      30.05S
LINCOLN*       CLEAR     57  56  97 CALM      30.06R
SPRINGFIELD    CLEAR     56  55  97 CALM      30.06S
6HR MIN TEMP:  56; 6HR MAX TEMP:  72;

TAYLORVILLE    CLEAR     55  55  99 CALM      30.06S
6HR MIN TEMP:  55; 6HR MAX TEMP:  70;

$$

ILZ033-039-045-046-055>057-062-063-240700-
EAST-CENTRAL ILLINOIS

CITY           SKY/WX    TMP DP  RH WIND       PRES   REMARKS
CHAMPAIGN      CLEAR     55  53  93 W5        30.05S
RANTOUL*       CLEAR     60  57  91 CALM      30.05S
MATTOON        CLEAR     59  56  89 W3        30.05R
PARIS*         CLEAR     52  51  97 CALM      30.06S
$$

ILZ079-100>102-240700-
SOUTHWEST ILLINOIS

CITY           SKY/WX    TMP DP  RH WIND       PRES   REMARKS
ALTON          CLEAR     56  56 100 CALM      30.07R
BELLEVILLE     CLEAR     59  56  88 CALM      30.07S
CAHOKIA*       CLEAR     59  56  89 CALM      30.06S
$$

ILZ064>066-069>071-074>076-080>082-084>086-088>090-092>094-240700-
SOUTH-CENTRAL ILLINOIS

CITY           SKY/WX    TMP DP  RH WIND       PRES   REMARKS
CARBONDALE     CLEAR     57  57 100 CALM      30.05S
6HR MIN TEMP:  57; 6HR MAX TEMP:  75;

CAIRO*         CLEAR     58  56  93 CALM      30.04S
EFFINGHAM*     PTCLDY    57  57 100 CALM      30.07S
MARION         CLEAR     59  59 100 CALM      30.05F
MT. VERNON       N/A     56  56 100 CALM      30.06S FOG
CENTRALIA*     CLEAR     57  57  99 CALM      30.05S
SALEM*         CLEAR     57  54  92 CALM      30.06S
METROPOLIS*    CLEAR     58  57  94 CALM      30.04F
$$

ILZ067-068-072-073-078-083-087-091-240700-
SOUTHEAST ILLINOIS

CITY           SKY/WX    TMP DP  RH WIND       PRES   REMARKS
LAWRENCEVILLE  CLEAR     59  57  93 W5        30.04S
FLORA*         CLEAR     60  57  88 CALM      30.05F
FAIRFIELD*     CLEAR     57  57 100 CALM      30.04S
HARRISBURG*    CLEAR     59  56  91 CALM      30.05S
ROBINSON*      CLEAR     53  53 100 CALM      30.06S
CARMI*         CLEAR     57  57 100 CALM      30.04S
$$

ABBREVIATIONS USED IN REMARKS
   TC - TEMPERATURE IN CELSIUS
  WCI - WIND CHILL INDEX
   HX - HEAT INDEX
  VSB - VISIBILITY
$$





USA.gov is the U.S. government's official web portal to all federal, state and local government web resources and services.